EW9433 Weather Reports


Display with metric or nautical units.
time (UTC)temp
F
wind
direction
speed
MPH
gust
MPH
rain 1hr
in
rain 24hr
in
rain mn
in
humidity
%
barometer
mb
20180522040016 73 0.0 0.0 0.00 0.00 0.00 85 1013.4
20180522033016 74 0.0 0.0 0.00 0.00 0.00 84 1013.2
20180522030016 74 0.0 0.0 0.00 0.00 0.00 81 1012.9
20180522023017 74 0.0 0.0 0.00 0.00 0.00 81 1012.6
20180522020017 76 0.0 0.0 0.00 0.00 0.00 76 1012.5
20180522013017 80 0.0 0.0 0.00 0.00 0.00 70 1012.2
20180522010017 85 0.0 0.0 0.00 0.00 0.00 63 1012.2
20180522003017 86 0.0 0.0 0.00 0.00 0.00 60 1012.2
20180522000017 85 0.0 2.0 0.00 0.00 0.00 62 1012.2
20180521233017 85 202 1.0 4.0 0.00 0.00 0.00 61 1012.2
20180521230016 86 157 2.0 7.0 0.00 0.00 0.00 59 1012.2
20180521223016 88 292 1.0 4.0 0.00 0.00 0.00 55 1012.2
20180521220017 87 225 3.0 8.0 0.00 0.00 0.00 54 1012.2
20180521213017 88 225 2.0 8.0 0.00 0.00 0.00 54 1012.4
20180521210016 88 292 1.0 5.0 0.00 0.00 0.00 54 1012.6
20180521203016 87 135 1.0 5.0 0.00 0.00 0.00 57 1013.2
20180521200016 87 135 1.0 6.0 0.00 0.00 0.00 54 1013.6
20180521193016 87 225 1.0 6.0 0.00 0.00 0.00 56 1014.0
20180521190017 87 225 1.0 5.0 0.00 0.00 0.00 60 1014.5
20180521183017 83 0.0 4.0 0.00 0.00 0.00 63 1014.7
20180521180017 83 135 2.0 5.0 0.00 0.00 0.00 61 1015.1
20180521173016 84 0.0 2.0 0.00 0.00 0.00 63 1015.3
20180521170016 83 22 1.0 5.0 0.00 0.00 0.00 61 1015.6
20180521163016 81 337 1.0 6.0 0.00 0.01 0.00 67 1015.7
20180521160016 79 0.0 0.0 0.00 0.01 0.00 68 1015.8
20180521153016 79 337 1.0 6.0 0.00 0.01 0.00 72 1015.9
20180521150017 77 22 1.0 5.0 0.00 0.01 0.00 77 1016.0
20180521143016 75 0.0 2.0 0.00 0.04 0.00 81 1016.1
20180521140016 72 0.0 3.0 0.00 0.04 0.00 90 1016.2
20180521133016 69 0 1.0 4.0 0.00 0.04 0.00 94 1015.9
20180521130016 67 0.0 0.0 0.00 0.04 0.00 97 1015.7
20180521123016 65 0.0 0.0 0.00 0.04 0.00 97 1015.7
20180521120016 63 0.0 0.0 0.00 0.04 0.00 96 1015.2
20180521113016 63 0.0 0.0 0.00 0.04 0.00 96 1015.0
20180521110016 64 0.0 0.0 0.00 0.04 0.00 96 1014.5
20180521103016 64 0.0 0.0 0.00 0.04 0.00 96 1014.3
20180521100016 63 0.0 0.0 0.00 0.04 0.00 96 1014.3
20180521093016 64 0.0 0.0 0.00 0.04 0.00 96 1013.9
20180521090016 64 0.0 0.0 0.00 0.04 0.00 96 1013.6
20180521083016 65 0.0 0.0 0.00 0.04 0.00 95 1013.6
20180521080016 65 0.0 0.0 0.00 0.04 0.00 95 1013.6
20180521073016 66 0.0 0.0 0.00 0.04 0.00 95 1013.8
20180521070016 66 0.0 0.0 0.00 0.04 0.00 95 1014.1
20180521063016 66 0.0 0.0 0.00 0.04 0.00 94 1014.2
20180521060016 67 0.0 0.0 0.00 0.04 0.00 94 1014.1
20180521053016 68 0.0 0.0 0.00 0.04 0.00 94 1014.2
20180521050016 68 0.0 0.0 0.00 0.04 0.00 92 1014.5
20180521043016 69 0.0 0.0 0.00 0.04 0.04 90 1014.5